Location: Unspecified
(0.0000°N, 0.0000°E)
Time: 16:58:10
(UTC+00:00)

HO-68 - Pass Details

Date: 05 June 2023
Orbit: 1193 x 1204 km, 100.3° (Epoch: 28 September)

Event Time Altitude Azimuth Distance (km) Brightness Sun altitude
Rises 02:36:43 0° 23° (NNE) 4,089 ? -45.4°
Reaches altitude 10° 02:39:23 10° 27° (NNE) 3,126 ? -44.8°
Enters shadow 02:43:15 34° 41° (NE) 1,862 ? -44.0°
